Overview Statistics Trail Chart Weather Telemetry Raw packets
 

This is the latest recevied weather packets stored in our database for station/object K0APR. If no packets are shown the sender has not sent any weather packets the latest 10 day(s).

<< 2 3 4 5 6 7 8 >>
Time Temp. Humidity Pressure Rain* Wind** Luminosity Snow
1788643716 29.44° C 68% 1014.4 hPa 0 mm - 117 W/m² -
1788643410 29.44° C 67% 1014.4 hPa 0 mm - 65 W/m² -
1788643110 29.44° C 68% 1014.4 hPa 0 mm - 69 W/m² -
1788642806 29.44° C 68% 1014.4 hPa 0 mm - 114 W/m² -
1788642502 29.44° C 67% 1014.4 hPa 0 mm - 393 W/m² -
1788642202 30° C 67% 1014.4 hPa 0 mm - 101 W/m² -
1788641901 29.44° C 68% 1014.4 hPa 0 mm - 478 W/m² -
1788641595 30° C 67% 1014.4 hPa 0 mm - 435 W/m² -
1788641295 30° C 66% 1014.4 hPa 0 mm - 430 W/m² -
1788640991 29.44° C 67% 1014.4 hPa 0 mm - 497 W/m² -
1788640690 30° C 66% 1014.4 hPa 0 mm - 118 W/m² -
1788640386 30° C 65% 1014.4 hPa 0 mm - 116 W/m² -
1788640081 29.44° C 66% 1014.4 hPa 0 mm - 131 W/m² -
1788639776 29.44° C 66% 1014.4 hPa 0 mm - 332 W/m² -
1788639471 30° C 66% 1014.4 hPa 0 mm - 331 W/m² -
1788639166 30° C 62% 1014.4 hPa 0 mm - 445 W/m² -
1788638861 30° C 64% 1014.4 hPa 0 mm - 418 W/m² -
1788638557 30° C 62% 1014.4 hPa 0 mm - 373 W/m² -
1788638255 30.56° C 62% 1014.4 hPa 0 mm - 473 W/m² -
1788637950 30° C 64% 1014.4 hPa 0 mm - 519 W/m² -
1788637646 30° C 64% 1014.4 hPa 0 mm - 496 W/m² -
1788637346 30° C 61% 1014 hPa 0 mm - 386 W/m² -
1788637045 30° C 64% 1014 hPa 0 mm - 347 W/m² -
1788636740 30° C 61% 1014 hPa 0 mm - 414 W/m² -
1788636436 30° C 63% 1014 hPa 0 mm - 495 W/m² -

* Rain latest hour (hover to see other rain measurements)
** Current wind speed in m/s (hover to see current wind gust speed)